| time (UTC) | temp F | wind direction | speed MPH | gust MPH | rain 1hr in | rain 24hr in | rain mn in | humidity % | barometer mb |
| 20260904023028 | 58 | 265 | 4.0 | 13.0 | 0.00 | 0.00 | 0.00 | 54 | 1016.4 |
| 20260904021522 | 58 | 280 | 5.0 | 13.0 | 0.00 | 0.00 | 0.00 | 55 | 1016.8 |
| 20260904020019 | 57 | 257 | 6.0 | 14.0 | 0.00 | 0.00 | 0.00 | 55 | 1017.1 |
| 20260904014515 | 57 | 282 | 6.0 | 13.0 | 0.00 | 0.00 | 0.00 | 55 | 1017.4 |
| 20260904013012 | 56 | 285 | 5.0 | 12.0 | 0.00 | 0.00 | 0.00 | 55 | 1017.6 |
| 20260904011533 | 55 | 277 | 6.0 | 16.0 | 0.00 | 0.00 | 0.00 | 54 | 1017.8 |
| 20260904010012 | 56 | 266 | 3.0 | 10.0 | 0.00 | 0.00 | 0.00 | 54 | 1017.9 |
| 20260904004537 | 55 | 328 | 3.0 | 12.0 | 0.00 | 0.02 | 0.00 | 56 | 1018.1 |
| 20260904003036 | 55 | 263 | 3.0 | 16.0 | 0.00 | 0.02 | 0.00 | 59 | 1018.4 |
| 20260904001535 | 55 | 243 | 4.0 | 15.0 | 0.00 | 0.02 | 0.00 | 58 | 1018.7 |
| 20260904000040 | 54 | 271 | 7.0 | 17.0 | 0.00 | 0.02 | 0.00 | 55 | 1018.8 |
| 20260903234539 | 54 | 288 | 6.0 | 16.0 | 0.00 | 0.02 | 0.00 | 58 | 1018.9 |
| 20260903233030 | 54 | 271 | 3.0 | 8.0 | 0.00 | 0.02 | 0.00 | 62 | 1018.8 |
| 20260903231527 | 53 | 267 | 3.0 | 10.0 | 0.00 | 0.02 | 0.00 | 63 | 1018.8 |
| 20260903230033 | 52 | 278 | 3.0 | 10.0 | 0.00 | 0.02 | 0.00 | 67 | 1019.2 |
| 20260903224510 | 51 | 320 | 2.0 | 8.0 | 0.00 | 0.02 | 0.00 | 70 | 1019.2 |
| 20260903223006 | 49 | 304 | 3.0 | 9.0 | 0.00 | 0.02 | 0.00 | 72 | 1019.2 |
| 20260903221503 | 47 | 257 | 2.0 | 6.0 | 0.00 | 0.02 | 0.00 | 75 | 1019.1 |
| 20260903220122 | 45 | 289 | 1.0 | 6.0 | 0.00 | 0.02 | 0.00 | 77 | 1019.1 |
| 20260903214559 | 44 | 272 | 1.0 | 2.0 | 0.00 | 0.02 | 0.00 | 77 | 1018.8 |
| 20260903213104 | 43 | 275 | 0.0 | 3.0 | 0.00 | 0.02 | 0.00 | 77 | 1018.6 |
| 20260903211601 | 42 | 345 | 1.0 | 3.0 | 0.00 | 0.02 | 0.00 | 79 | 1018.5 |
| 20260903210106 | 41 | 345 | 0.0 | 1.0 | 0.00 | 0.02 | 0.00 | 80 | 1018.3 |
| 20260903204554 | 42 | 345 | 1.0 | 3.0 | 0.00 | 0.02 | 0.00 | 79 | 1018.2 |
| 20260903203118 | 42 | 352 | 1.0 | 2.0 | 0.00 | 0.02 | 0.00 | 79 | 1018.1 |
| 20260903201552 | 41 | 356 | 0.0 | 1.0 | 0.00 | 0.02 | 0.00 | 79 | 1018.0 |
| 20260903200050 | 42 | 356 | 0.0 | 2.0 | 0.00 | 0.02 | 0.00 | 79 | 1017.9 |
| 20260903194551 | 42 | 152 | 0.0 | 1.0 | 0.00 | 0.02 | 0.00 | 80 | 1017.8 |
| 20260903193043 | 41 | 276 | 0.0 | 0.0 | 0.00 | 0.02 | 0.00 | 80 | 1017.8 |
| 20260903191540 | 42 | 276 | 0.0 | 2.0 | 0.00 | 0.02 | 0.00 | 79 | 1017.7 |
| 20260903190038 | 42 | 280 | 2.0 | 5.0 | 0.00 | 0.02 | 0.00 | 79 | 1017.7 |
| 20260903184537 | 42 | 286 | 2.0 | 6.0 | 0.00 | 0.02 | 0.00 | 79 | 1017.6 |
| 20260903183042 | 42 | 278 | 2.0 | 6.0 | 0.00 | 0.02 | 0.00 | 79 | 1017.5 |
| 20260903181534 | 43 | 277 | 2.0 | 7.0 | 0.00 | 0.02 | 0.00 | 79 | 1017.4 |
| 20260903180032 | 42 | 295 | 2.0 | 5.0 | 0.00 | 0.02 | 0.00 | 80 | 1017.6 |
| 20260903174530 | 42 | 269 | 4.0 | 7.0 | 0.00 | 0.02 | 0.00 | 81 | 1017.6 |
| 20260903173047 | 42 | 291 | 1.0 | 6.0 | 0.00 | 0.02 | 0.00 | 82 | 1017.7 |
| 20260903171558 | 42 | 283 | 4.0 | 7.0 | 0.00 | 0.02 | 0.00 | 82 | 1017.9 |
| 20260903170043 | 43 | 290 | 3.0 | 6.0 | 0.00 | 0.02 | 0.00 | 81 | 1018.0 |
| 20260903164601 | 43 | 287 | 2.0 | 5.0 | 0.00 | 0.02 | 0.00 | 81 | 1018.1 |
| 20260903163039 | 43 | 283 | 2.0 | 5.0 | 0.00 | 0.02 | 0.00 | 81 | 1018.2 |
| 20260903161536 | 43 | 274 | 2.0 | 8.0 | 0.00 | 0.02 | 0.00 | 81 | 1018.4 |
| 20260903160036 | 43 | 287 | 3.0 | 6.0 | 0.00 | 0.02 | 0.00 | 80 | 1018.5 |
| 20260903154538 | 43 | 292 | 3.0 | 6.0 | 0.00 | 0.02 | 0.00 | 81 | 1018.6 |
| 20260903153031 | 43 | 281 | 2.0 | 6.0 | 0.00 | 0.02 | 0.00 | 82 | 1018.7 |
| 20260903151527 | 43 | 271 | 2.0 | 6.0 | 0.00 | 0.02 | 0.00 | 83 | 1018.8 |
| 20260903150027 | 43 | 267 | 4.0 | 7.0 | 0.00 | 0.02 | 0.00 | 83 | 1018.8 |
| 20260903144539 | 43 | 271 | 4.0 | 7.0 | 0.00 | 0.02 | 0.00 | 83 | 1019.0 |
| 20260903143032 | 44 | 283 | 3.0 | 6.0 | 0.00 | 0.02 | 0.00 | 82 | 1019.0 |
| 20260903141516 | 46 | 269 | 4.0 | 8.0 | 0.00 | 0.02 | 0.00 | 80 | 1019.1 |
| 20260903140019 | 46 | 308 | 1.0 | 5.0 | 0.00 | 0.02 | 0.00 | 80 | 1018.9 |
| 20260903134513 | 47 | 322 | 1.0 | 5.0 | 0.00 | 0.02 | 0.02 | 80 | 1018.9 |
| 20260903133012 | 47 | 293 | 2.0 | 6.0 | 0.00 | 0.02 | 0.02 | 80 | 1018.9 |
| 20260903131511 | 47 | 293 | 1.0 | 4.0 | 0.00 | 0.02 | 0.02 | 80 | 1018.9 |
| 20260903130010 | 46 | 300 | 1.0 | 4.0 | 0.00 | 0.02 | 0.02 | 82 | 1018.8 |
| 20260903124510 | 46 | 283 | 1.0 | 4.0 | 0.00 | 0.02 | 0.02 | 81 | 1018.9 |
| 20260903123008 | 47 | 291 | 3.0 | 5.0 | 0.00 | 0.02 | 0.02 | 80 | 1018.9 |
| 20260903121615 | 48 | 281 | 2.0 | 8.0 | 0.00 | 0.02 | 0.02 | 78 | 1018.9 |
| 20260903120037 | 47 | 257 | 4.0 | 7.0 | 0.00 | 0.02 | 0.02 | 80 | 1018.8 |
| 20260903114524 | 47 | 278 | 2.0 | 4.0 | 0.00 | 0.02 | 0.02 | 81 | 1018.9 |
| 20260903113031 | 47 | 277 | 4.0 | 6.0 | 0.00 | 0.02 | 0.02 | 81 | 1018.7 |
| 20260903111520 | 48 | 281 | 2.0 | 5.0 | 0.00 | 0.02 | 0.02 | 81 | 1018.7 |
| 20260903110019 | 48 | 268 | 3.0 | 5.0 | 0.00 | 0.02 | 0.02 | 80 | 1018.5 |
| 20260903104516 | 48 | 285 | 2.0 | 5.0 | 0.00 | 0.02 | 0.02 | 79 | 1018.2 |
| 20260903103014 | 49 | 276 | 3.0 | 6.0 | 0.00 | 0.02 | 0.02 | 78 | 1018.0 |
| 20260903101521 | 49 | 275 | 3.0 | 6.0 | 0.00 | 0.02 | 0.02 | 77 | 1017.7 |
| 20260903100021 | 49 | 274 | 2.0 | 4.0 | 0.00 | 0.02 | 0.02 | 77 | 1017.7 |
| 20260903094547 | 49 | 277 | 2.0 | 4.0 | 0.00 | 0.02 | 0.02 | 77 | 1017.6 |
| 20260903093036 | 50 | 281 | 2.0 | 3.0 | 0.00 | 0.02 | 0.02 | 75 | 1017.4 |
| 20260903091544 | 51 | 292 | 3.0 | 6.0 | 0.00 | 0.02 | 0.02 | 72 | 1017.3 |
| 20260903090029 | 52 | 271 | 3.0 | 7.0 | 0.00 | 0.02 | 0.02 | 71 | 1017.0 |
| 20260903084528 | 53 | 262 | 3.0 | 8.0 | 0.00 | 0.02 | 0.02 | 69 | 1016.8 |
| 20260903083025 | 53 | 254 | 4.0 | 11.0 | 0.00 | 0.02 | 0.02 | 67 | 1016.6 |
| 20260903081525 | 54 | 245 | 4.0 | 8.0 | 0.00 | 0.02 | 0.02 | 66 | 1016.2 |
| 20260903080017 | 55 | 265 | 2.0 | 7.0 | 0.00 | 0.02 | 0.02 | 64 | 1016.0 |
| 20260903074514 | 56 | 257 | 6.0 | 14.0 | 0.00 | 0.02 | 0.02 | 62 | 1015.8 |
| 20260903073027 | 56 | 279 | 4.0 | 14.0 | 0.00 | 0.02 | 0.02 | 62 | 1015.5 |
| 20260903071514 | 57 | 248 | 5.0 | 13.0 | 0.00 | 0.02 | 0.02 | 62 | 1015.3 |
| 20260903070009 | 57 | 278 | 7.0 | 17.0 | 0.00 | 0.02 | 0.02 | 63 | 1015.0 |
| 20260903064503 | 57 | 247 | 6.0 | 18.0 | 0.00 | 0.02 | 0.02 | 61 | 1014.8 |
| 20260903063101 | 58 | 270 | 9.0 | 18.0 | 0.00 | 0.02 | 0.02 | 59 | 1014.4 |
| 20260903061600 | 58 | 255 | 9.0 | 20.0 | 0.00 | 0.02 | 0.02 | 59 | 1014.2 |
| 20260903054554 | 58 | 252 | 7.0 | 22.0 | 0.00 | 0.02 | 0.02 | 58 | 1014.0 |
| 20260903053052 | 59 | 256 | 9.0 | 24.0 | 0.00 | 0.02 | 0.02 | 57 | 1013.7 |
| 20260903051558 | 59 | 264 | 9.0 | 20.0 | 0.00 | 0.02 | 0.02 | 56 | 1013.4 |
| 20260903050040 | 59 | 259 | 7.0 | 21.0 | 0.00 | 0.02 | 0.02 | 56 | 1013.1 |
| 20260903044542 | 59 | 255 | 10.0 | 23.0 | 0.00 | 0.02 | 0.02 | 56 | 1012.9 |
| 20260903043121 | 59 | 280 | 14.0 | 25.0 | 0.00 | 0.02 | 0.02 | 56 | 1012.7 |
| 20260903041536 | 59 | 271 | 11.0 | 22.0 | 0.00 | 0.02 | 0.02 | 56 | 1012.7 |
| 20260903040035 | 59 | 261 | 9.0 | 24.0 | 0.00 | 0.02 | 0.02 | 55 | 1012.5 |
| 20260903034504 | 59 | 271 | 13.0 | 29.0 | 0.00 | 0.02 | 0.02 | 56 | 1012.5 |
| 20260903033008 | 59 | 258 | 12.0 | 24.0 | 0.00 | 0.02 | 0.02 | 58 | 1012.5 |
| 20260903031502 | 58 | 268 | 14.0 | 27.0 | 0.00 | 0.02 | 0.02 | 60 | 1012.5 |
| 20260903030100 | 57 | 260 | 11.0 | 23.0 | 0.00 | 0.02 | 0.02 | 64 | 1012.6 |
| 20260903024602 | 59 | 278 | 14.0 | 25.0 | 0.00 | 0.02 | 0.02 | 62 | 1012.1 |